EA5JUX Weather Reports


time (UTC)temp
F
wind
direction
speed
knots
gust
knots
rain 1hr
in
rain 24hr
in
rain mn
in
humidity
%
barometer
mb
20260507153738 62 45 2.6 7.0 0.01 0.32 0.32 88 1009.3
20260507140236 62 315 1.7 7.0 0.01 0.08 0.08 85 1009.7
20260507133236 64 23 6.1 11.3 0.00 0.07 0.07 81 1009.6
20260507131225 64 23 3.5 9.6 0.00 0.07 0.07 79 1009.9
20260507123238 62 338 4.3 6.1 0.07 0.07 0.07 88 1010.0
20260507122229 62 338 3.5 7.0 0.07 0.07 0.07 88 1010.2
20260507113736 63 23 3.5 14.8 0.00 0.00 0.00 76 1010.4
20260507113229 63 23 5.2 14.8 0.00 0.00 0.00 76 1010.5
20260507110732 66 315 6.1 9.6 0.00 0.00 0.00 75 1010.4
20260507104724 69 90 2.6 9.6 0.00 0.00 0.00 75 1010.5
20260507104226 68 90 7.0 9.6 0.00 0.00 0.00 76 1010.5
20260507103234 67 90 2.6 9.6 0.00 0.00 0.00 80 1010.7
20260507095737 67 113 4.3 12.2 0.00 0.00 0.00 78 1010.4
20260507083726 67 90 3.5 9.6 0.00 0.00 0.00 79 1010.6
20260507081732 67 90 7.0 9.6 0.00 0.00 0.00 79 1010.3
20260507080733 67 90 5.2 9.6 0.00 0.00 0.00 78 1010.6
20260507073730 66 90 4.3 9.6 0.00 0.00 0.00 79 1010.4
20260507070725 66 90 4.3 9.6 0.00 0.00 0.00 79 1010.3
20260507064726 66 68 7.0 9.6 0.00 0.00 0.00 80 1009.9
20260507051232 65 90 3.5 7.8 0.00 0.00 0.00 81 1009.6
20260507041734 65 90 4.3 9.6 0.00 0.00 0.00 80 1009.1
20260507031724 65 68 7.0 7.8 0.00 0.00 0.00 80 1009.2
20260507030232 64 45 3.5 7.8 0.00 0.00 0.00 80 1009.4
20260507022227 65 90 4.3 7.0 0.00 0.00 0.00 80 1009.4
20260507020230 64 68 6.1 9.6 0.00 0.00 0.00 79 1009.7
20260507015736 65 68 3.5 9.6 0.00 0.00 0.00 80 1009.8
20260507012233 65 68 3.5 7.0 0.00 0.00 0.00 79 1010.3
20260507002733 65 68 4.3 7.8 0.00 0.00 0.00 80 1010.1
20260507001733 64 68 3.5 6.1 0.00 0.00 0.00 81 1010.2
20260507000226 64 45 3.5 3.5 0.00 0.00 0.00 81 1010.0
20260506221227 62 135 0.0 1.7 0.00 0.00 0.00 80 1010.6
20260506213228 63 113 0.0 1.7 0.00 0.00 0.00 80 1010.9
20260506212226 63 203 0.0 1.7 0.00 0.00 0.00 79 1011.0
20260506210229 63 135 0.0 1.7 0.00 0.00 0.00 79 1010.9
20260506205234 63 113 0.9 3.5 0.00 0.00 0.00 78 1010.8
20260506202236 63 135 0.0 3.5 0.00 0.00 0.00 78 1010.9
20260506194736 64 90 0.0 3.5 0.00 0.00 0.00 78 1010.2
20260506192725 64 113 1.7 6.1 0.00 0.00 0.00 77 1010.0
20260506190225 64 113 1.7 6.1 0.00 0.00 0.00 77 1009.8
20260506182229 65 90 3.5 9.6 0.00 0.00 0.00 75 1009.3
20260506181226 65 135 3.5 9.6 0.00 0.00 0.00 75 1009.3
20260506180735 65 135 3.5 9.6 0.00 0.00 0.00 75 1009.4
20260506174739 66 113 2.6 7.8 0.00 0.00 0.00 75 1009.3
20260506172229 66 113 3.5 9.6 0.00 0.00 0.00 75 1009.4
20260506170225 66 90 5.2 12.2 0.00 0.00 0.00 75 1009.3
20260506162725 67 68 6.1 12.2 0.00 0.00 0.00 73 1009.5
20260506161232 67 90 7.0 12.2 0.00 0.00 0.00 73 1009.5